sat.trackr.live / text

‹ back to catalog

2024-110B

NORAD 60013 · 2024-110B

PAYLOAD ACTIVE UNKNOWN

§ Identity

Operator
Country
PRC
Launch date
2024-06-06
Launch site
JSC
Launch vehicle
Mass (kg)
RCS (m²)

External: N2YO · Heavens-Above · Gunter

§ Orbital elements

Epoch: 2026-09-22T22:14:17.515104Z

Period
94.51 min
Inclination
97.5730°
Eccentricity
0.0009207
Mean motion
15.23620539 rev/d
Perigee alt
488.6 km
Apogee alt
501.3 km
Semi-major
6,873.1 km
B*
2.2640e-4
RAAN
2.6999°
Arg perigee
267.3637°
Mean anomaly
92.6546°
Rev number
12,706

§ Raw data

2024-110B1 60013U 24110B   26265.92659161  .00005354  00000+0  22640-3 0  99912 60013  97.5730   2.6999 0009207 267.3637  92.6546 15.23620539127064

JSON: /api/v1/satellites/60013 · /tle

For live sub-satellite position, see the globe view (requires WebGL).

§ Visibility from observer

Set your observer location to see the next 7 days of passes ≥ 10°. The values pass through the URL so the page stays shareable.

No JS? Fill the form by hand. The geolocation button needs JavaScript.

§ Radio — SatNOGS DB

ModeDescriptionDownlinkUplink
FM Mode U - Transmitter 401.950 MHz

1 transmitter · refreshed weekly from db.satnogs.org